| time (UTC) | temp C | wind direction | speed KPH | gust KPH | rain 1hr cm | rain 24hr cm | rain mn cm | humidity % | barometer mb |
| 20260504050559 | 18 | 149 | 6.4 | 0.0 | 0.00 | 0.00 | 0.00 | 65 | 1017.4 |
| 20260504045516 | 18 | 139 | 8.0 | 0.0 | 0.00 | 0.00 | 0.00 | 64 | 1017.6 |
| 20260504045058 | 18 | 146 | 6.4 | 0.0 | 0.00 | 0.00 | 0.00 | 65 | 1017.5 |
| 20260504044603 | 18 | 152 | 4.8 | 0.0 | 0.00 | 0.00 | 0.00 | 65 | 1017.6 |
| 20260504044035 | 17 | 147 | 4.8 | 0.0 | 0.00 | 0.00 | 0.00 | 65 | 1017.7 |
| 20260504043511 | 17 | 158 | 4.8 | 0.0 | 0.00 | 0.00 | 0.00 | 65 | 1017.8 |
| 20260504043017 | 17 | 163 | 3.2 | 0.0 | 0.00 | 0.00 | 0.00 | 67 | 1017.8 |
| 20260504042550 | 17 | 139 | 3.2 | 0.0 | 0.00 | 0.00 | 0.00 | 68 | 1017.8 |
| 20260504042023 | 16 | 139 | 1.6 | 0.0 | 0.00 | 0.00 | 0.00 | 69 | 1017.7 |
| 20260504041527 | 16 | 139 | 0.0 | 0.0 | 0.00 | 0.00 | 0.00 | 70 | 1017.8 |
| 20260504041107 | 16 | 139 | 0.0 | 0.0 | 0.00 | 0.00 | 0.00 | 71 | 1017.8 |
| 20260504040542 | 16 | 139 | 0.0 | 0.0 | 0.00 | 0.00 | 0.00 | 72 | 1017.7 |
| 20260504040049 | 16 | 139 | 0.0 | 0.0 | 0.00 | 0.00 | 0.00 | 71 | 1017.7 |
| 20260504035519 | 16 | 139 | 0.0 | 0.0 | 0.00 | 0.00 | 0.00 | 71 | 1017.8 |
| 20260504035054 | 16 | 139 | 0.0 | 0.0 | 0.00 | 0.00 | 0.00 | 72 | 1017.9 |
| 20260504034543 | 16 | 139 | 0.0 | 0.0 | 0.00 | 0.00 | 0.00 | 72 | 1017.9 |
| 20260504034016 | 16 | 139 | 0.0 | 0.0 | 0.00 | 0.00 | 0.00 | 71 | 1017.9 |
| 20260504033551 | 16 | 139 | 0.0 | 0.0 | 0.00 | 0.00 | 0.00 | 70 | 1018.0 |
| 20260504033056 | 16 | 139 | 0.0 | 0.0 | 0.00 | 0.00 | 0.00 | 70 | 1017.9 |
| 20260504032525 | 16 | 139 | 0.0 | 0.0 | 0.00 | 0.00 | 0.00 | 69 | 1017.7 |
| 20260504032004 | 17 | 139 | 0.0 | 0.0 | 0.00 | 0.00 | 0.00 | 68 | 1017.8 |
| 20260504031505 | 17 | 139 | 0.0 | 0.0 | 0.00 | 0.00 | 0.00 | 66 | 1017.9 |
| 20260504031041 | 17 | 139 | 0.0 | 0.0 | 0.00 | 0.00 | 0.00 | 65 | 1017.8 |
| 20260504030514 | 17 | 139 | 0.0 | 0.0 | 0.00 | 0.00 | 0.00 | 65 | 1017.9 |
| 20260504030021 | 18 | 139 | 0.0 | 0.0 | 0.00 | 0.00 | 0.00 | 63 | 1017.9 |
| 20260504025555 | 18 | 139 | 0.0 | 0.0 | 0.00 | 0.00 | 0.00 | 62 | 1017.9 |
| 20260504025033 | 18 | 139 | 0.0 | 0.0 | 0.00 | 0.00 | 0.00 | 62 | 1017.8 |
| 20260504024538 | 18 | 139 | 0.0 | 0.0 | 0.00 | 0.00 | 0.00 | 60 | 1017.7 |
| 20260504024008 | 18 | 139 | 0.0 | 0.0 | 0.00 | 0.00 | 0.00 | 59 | 1018.0 |
| 20260504023544 | 19 | 139 | 0.0 | 0.0 | 0.00 | 0.00 | 0.00 | 58 | 1017.9 |
| 20260504023034 | 19 | 139 | 0.0 | 0.0 | 0.00 | 0.00 | 0.00 | 57 | 1017.7 |
| 20260504022511 | 19 | 139 | 0.0 | 0.0 | 0.00 | 0.00 | 0.00 | 56 | 1017.7 |
| 20260504022045 | 19 | 139 | 0.0 | 0.0 | 0.00 | 0.00 | 0.00 | 56 | 1017.6 |
| 20260504021534 | 20 | 139 | 0.0 | 0.0 | 0.00 | 0.00 | 0.00 | 55 | 1017.6 |
| 20260504021007 | 20 | 139 | 0.0 | 0.0 | 0.00 | 0.00 | 0.00 | 54 | 1017.7 |
| 20260504020545 | 20 | 139 | 0.0 | 0.0 | 0.00 | 0.00 | 0.00 | 53 | 1017.7 |
| 20260504020049 | 20 | 139 | 0.0 | 0.0 | 0.00 | 0.00 | 0.00 | 52 | 1017.6 |
| 20260504015522 | 20 | 139 | 0.0 | 0.0 | 0.00 | 0.00 | 0.00 | 52 | 1017.4 |
| 20260504015103 | 21 | 139 | 0.0 | 0.0 | 0.00 | 0.00 | 0.00 | 52 | 1017.3 |
| 20260504014504 | 21 | 139 | 1.6 | 0.0 | 0.00 | 0.00 | 0.00 | 49 | 1017.3 |
| 20260504014038 | 21 | 139 | 1.6 | 0.0 | 0.00 | 0.00 | 0.00 | 48 | 1017.3 |
| 20260504013515 | 21 | 139 | 1.6 | 0.0 | 0.00 | 0.00 | 0.00 | 48 | 1017.2 |
| 20260504013018 | 21 | 139 | 1.6 | 0.0 | 0.00 | 0.00 | 0.00 | 47 | 1017.2 |
| 20260504012555 | 21 | 139 | 1.6 | 0.0 | 0.00 | 0.00 | 0.00 | 47 | 1017.1 |
| 20260504012021 | 22 | 139 | 3.2 | 0.0 | 0.00 | 0.00 | 0.00 | 46 | 1017.2 |
| 20260504011528 | 22 | 139 | 3.2 | 0.0 | 0.00 | 0.00 | 0.00 | 46 | 1017.2 |
| 20260504011101 | 22 | 139 | 3.2 | 0.0 | 0.00 | 0.00 | 0.00 | 46 | 1017.2 |
| 20260504010534 | 22 | 139 | 3.2 | 0.0 | 0.00 | 0.00 | 0.00 | 45 | 1017.3 |
| 20260504010039 | 22 | 154 | 3.2 | 0.0 | 0.00 | 0.00 | 0.00 | 45 | 1017.2 |
| 20260504005509 | 22 | 168 | 3.2 | 0.0 | 0.00 | 0.00 | 0.00 | 44 | 1017.2 |
| 20260504005048 | 22 | 175 | 4.8 | 0.0 | 0.00 | 0.00 | 0.00 | 44 | 1017.2 |
| 20260504004549 | 23 | 202 | 6.4 | 0.0 | 0.00 | 0.00 | 0.00 | 43 | 1017.2 |
| 20260504004022 | 23 | 146 | 6.4 | 0.0 | 0.00 | 0.00 | 0.00 | 43 | 1017.2 |
| 20260504003600 | 23 | 143 | 4.8 | 0.0 | 0.00 | 0.00 | 0.00 | 43 | 1017.1 |
| 20260504003108 | 23 | 150 | 4.8 | 0.0 | 0.00 | 0.00 | 0.00 | 42 | 1017.2 |
| 20260504002543 | 23 | 140 | 6.4 | 0.0 | 0.00 | 0.00 | 0.00 | 42 | 1017.3 |
| 20260504002018 | 23 | 121 | 6.4 | 0.0 | 0.00 | 0.00 | 0.00 | 42 | 1017.3 |
| 20260504001527 | 23 | 133 | 6.4 | 0.0 | 0.00 | 0.00 | 0.00 | 42 | 1017.3 |
| 20260504001100 | 23 | 167 | 6.4 | 0.0 | 0.00 | 0.00 | 0.00 | 42 | 1017.3 |
| 20260504000536 | 23 | 182 | 6.4 | 0.0 | 0.00 | 0.00 | 0.00 | 42 | 1017.5 |
| 20260504000051 | 23 | 138 | 6.4 | 0.0 | 0.00 | 0.00 | 0.00 | 41 | 1017.6 |
| 20260503235502 | 23 | 149 | 4.8 | 0.0 | 0.00 | 0.00 | 0.00 | 40 | 1017.6 |
| 20260503235043 | 24 | 149 | 4.8 | 0.0 | 0.00 | 0.00 | 0.00 | 39 | 1017.7 |
| 20260503234542 | 24 | 150 | 6.4 | 0.0 | 0.00 | 0.00 | 0.00 | 39 | 1017.6 |
| 20260503234005 | 24 | 150 | 6.4 | 0.0 | 0.00 | 0.00 | 0.00 | 39 | 1017.6 |
| 20260503233547 | 24 | 136 | 6.4 | 0.0 | 0.00 | 0.00 | 0.00 | 39 | 1017.7 |
| 20260503233036 | 24 | 133 | 4.8 | 0.0 | 0.00 | 0.00 | 0.00 | 38 | 1017.8 |
| 20260503232511 | 24 | 147 | 4.8 | 0.0 | 0.00 | 0.00 | 0.00 | 38 | 1017.8 |
| 20260503232047 | 24 | 122 | 6.4 | 0.0 | 0.00 | 0.00 | 0.00 | 37 | 1017.9 |
| 20260503231534 | 25 | 158 | 8.0 | 0.0 | 0.00 | 0.00 | 0.00 | 36 | 1017.8 |
| 20260503231010 | 25 | 121 | 8.0 | 0.0 | 0.00 | 0.00 | 0.00 | 36 | 1017.7 |
| 20260503230545 | 25 | 140 | 8.0 | 0.0 | 0.00 | 0.00 | 0.00 | 35 | 1017.6 |
| 20260503230034 | 25 | 141 | 8.0 | 0.0 | 0.00 | 0.00 | 0.00 | 36 | 1017.7 |
| 20260503225509 | 25 | 153 | 9.7 | 0.0 | 0.00 | 0.00 | 0.00 | 36 | 1017.7 |
| 20260503225052 | 25 | 140 | 8.0 | 0.0 | 0.00 | 0.00 | 0.00 | 36 | 1017.7 |
| 20260503224557 | 25 | 120 | 8.0 | 0.0 | 0.00 | 0.00 | 0.00 | 36 | 1018.0 |
| 20260503224030 | 25 | 124 | 9.7 | 0.0 | 0.00 | 0.00 | 0.00 | 37 | 1018.0 |
| 20260503223502 | 25 | 137 | 9.7 | 0.0 | 0.00 | 0.00 | 0.00 | 37 | 1018.1 |
| 20260503223053 | 26 | 159 | 8.0 | 0.0 | 0.00 | 0.00 | 0.00 | 37 | 1018.1 |
| 20260503222526 | 26 | 133 | 6.4 | 0.0 | 0.00 | 0.00 | 0.00 | 37 | 1018.2 |
| 20260503222101 | 26 | 132 | 6.4 | 0.0 | 0.00 | 0.00 | 0.00 | 36 | 1018.1 |
| 20260503221554 | 25 | 150 | 9.7 | 0.0 | 0.00 | 0.00 | 0.00 | 36 | 1018.3 |
| 20260503221025 | 25 | 247 | 11.3 | 0.0 | 0.00 | 0.00 | 0.00 | 35 | 1018.3 |
| 20260503220605 | 25 | 150 | 9.7 | 0.0 | 0.00 | 0.00 | 0.00 | 37 | 1018.4 |
| 20260503220008 | 25 | 123 | 9.7 | 0.0 | 0.00 | 0.00 | 0.00 | 35 | 1018.4 |
| 20260503215548 | 26 | 191 | 9.7 | 0.0 | 0.00 | 0.00 | 0.00 | 35 | 1018.5 |
| 20260503215020 | 25 | 146 | 9.7 | 0.0 | 0.00 | 0.00 | 0.00 | 36 | 1018.5 |
| 20260503214526 | 25 | 150 | 8.0 | 0.0 | 0.00 | 0.00 | 0.00 | 36 | 1018.7 |
| 20260503214100 | 25 | 156 | 8.0 | 0.0 | 0.00 | 0.00 | 0.00 | 36 | 1018.7 |
| 20260503213536 | 26 | 184 | 8.0 | 0.0 | 0.00 | 0.00 | 0.00 | 37 | 1018.9 |
| 20260503213039 | 26 | 144 | 8.0 | 0.0 | 0.00 | 0.00 | 0.00 | 36 | 1019.0 |
| 20260503212509 | 26 | 144 | 8.0 | 0.0 | 0.00 | 0.00 | 0.00 | 37 | 1019.1 |
| 20260503212048 | 26 | 128 | 6.4 | 0.0 | 0.00 | 0.00 | 0.00 | 37 | 1019.2 |
| 20260503211533 | 25 | 150 | 8.0 | 0.0 | 0.00 | 0.00 | 0.00 | 35 | 1019.3 |
| 20260503211006 | 26 | 150 | 8.0 | 0.0 | 0.00 | 0.00 | 0.00 | 35 | 1019.3 |
| 20260503210549 | 26 | 145 | 8.0 | 0.0 | 0.00 | 0.00 | 0.00 | 35 | 1019.3 |
| 20260503210049 | 26 | 151 | 6.4 | 0.0 | 0.00 | 0.00 | 0.00 | 36 | 1019.5 |
| 20260503205526 | 26 | 143 | 8.0 | 0.0 | 0.00 | 0.00 | 0.00 | 35 | 1019.7 |
| 20260503205103 | 26 | 143 | 8.0 | 0.0 | 0.00 | 0.00 | 0.00 | 34 | 1019.7 |
| 20260503204605 | 26 | 138 | 8.0 | 0.0 | 0.00 | 0.00 | 0.00 | 32 | 1019.6 |
| 20260503204038 | 26 | 159 | 6.4 | 0.0 | 0.00 | 0.00 | 0.00 | 34 | 1019.7 |
| 20260503203515 | 26 | 180 | 6.4 | 0.0 | 0.00 | 0.00 | 0.00 | 34 | 1019.8 |
| 20260503203024 | 26 | 137 | 8.0 | 0.0 | 0.00 | 0.00 | 0.00 | 37 | 1019.9 |
| 20260503202555 | 26 | 123 | 9.7 | 0.0 | 0.00 | 0.00 | 0.00 | 35 | 1020.0 |
| 20260503202026 | 26 | 161 | 8.0 | 0.0 | 0.00 | 0.00 | 0.00 | 36 | 1020.3 |
| 20260503201536 | 26 | 183 | 6.4 | 0.0 | 0.00 | 0.00 | 0.00 | 35 | 1020.3 |
| 20260503201004 | 26 | 138 | 6.4 | 0.0 | 0.00 | 0.00 | 0.00 | 34 | 1020.5 |
| 20260503200540 | 26 | 176 | 6.4 | 0.0 | 0.00 | 0.00 | 0.00 | 33 | 1020.5 |
| 20260503200046 | 26 | 142 | 6.4 | 0.0 | 0.00 | 0.00 | 0.00 | 35 | 1020.5 |
| 20260503195515 | 26 | 152 | 8.0 | 0.0 | 0.00 | 0.00 | 0.00 | 33 | 1020.6 |
| 20260503195054 | 26 | 139 | 6.4 | 0.0 | 0.00 | 0.00 | 0.00 | 33 | 1020.7 |
| 20260503194542 | 26 | 141 | 8.0 | 0.0 | 0.00 | 0.00 | 0.00 | 37 | 1020.7 |
| 20260503194014 | 26 | 140 | 8.0 | 0.0 | 0.00 | 0.00 | 0.00 | 34 | 1020.8 |
| 20260503193553 | 26 | 134 | 4.8 | 0.0 | 0.00 | 0.00 | 0.00 | 35 | 1020.8 |
| 20260503193049 | 26 | 169 | 4.8 | 0.0 | 0.00 | 0.00 | 0.00 | 36 | 1020.8 |
| 20260503192515 | 26 | 154 | 6.4 | 0.0 | 0.00 | 0.00 | 0.00 | 35 | 1021.0 |
| 20260503192057 | 26 | 140 | 8.0 | 0.0 | 0.00 | 0.00 | 0.00 | 37 | 1021.0 |
| 20260503191610 | 25 | 142 | 9.7 | 0.0 | 0.00 | 0.00 | 0.00 | 34 | 1021.1 |
| 20260503191043 | 26 | 136 | 8.0 | 0.0 | 0.00 | 0.00 | 0.00 | 36 | 1021.1 |
| 20260503190520 | 26 | 180 | 6.4 | 0.0 | 0.00 | 0.00 | 0.00 | 36 | 1021.2 |
| 20260503190018 | 25 | 130 | 8.0 | 0.0 | 0.00 | 0.00 | 0.00 | 36 | 1021.3 |
| 20260503185558 | 25 | 115 | 11.3 | 0.0 | 0.00 | 0.00 | 0.00 | 35 | 1021.4 |
| 20260503185033 | 25 | 157 | 9.7 | 0.0 | 0.00 | 0.00 | 0.00 | 33 | 1021.5 |
| 20260503184536 | 25 | 167 | 8.0 | 0.0 | 0.00 | 0.00 | 0.00 | 35 | 1021.7 |
| 20260503184008 | 25 | 169 | 8.0 | 0.0 | 0.00 | 0.00 | 0.00 | 39 | 1021.6 |
| 20260503183544 | 25 | 126 | 8.0 | 0.0 | 0.00 | 0.00 | 0.00 | 37 | 1021.7 |
| 20260503183050 | 26 | 155 | 6.4 | 0.0 | 0.00 | 0.00 | 0.00 | 38 | 1021.7 |
| 20260503182526 | 25 | 186 | 6.4 | 0.0 | 0.00 | 0.00 | 0.00 | 38 | 1021.9 |
| 20260503182105 | 25 | 296 | 8.0 | 0.0 | 0.00 | 0.00 | 0.00 | 38 | 1022.0 |
| 20260503181604 | 25 | 127 | 9.7 | 0.0 | 0.00 | 0.00 | 0.00 | 35 | 1022.1 |
| 20260503181028 | 25 | 143 | 8.0 | 0.0 | 0.00 | 0.00 | 0.00 | 37 | 1022.2 |
| 20260503180501 | 25 | 165 | 8.0 | 0.0 | 0.00 | 0.00 | 0.00 | 35 | 1022.4 |
| 20260503180011 | 25 | 160 | 6.4 | 0.0 | 0.00 | 0.00 | 0.00 | 37 | 1022.5 |
| 20260503175541 | 25 | 147 | 6.4 | 0.0 | 0.00 | 0.00 | 0.00 | 38 | 1022.5 |
| 20260503175017 | 25 | 126 | 6.4 | 0.0 | 0.00 | 0.00 | 0.00 | 38 | 1022.6 |
| 20260503174523 | 25 | 139 | 4.8 | 0.0 | 0.00 | 0.00 | 0.00 | 37 | 1022.7 |
| 20260503174101 | 25 | 140 | 6.4 | 0.0 | 0.00 | 0.00 | 0.00 | 38 | 1022.7 |
| 20260503173538 | 25 | 144 | 6.4 | 0.0 | 0.00 | 0.00 | 0.00 | 35 | 1022.8 |
| 20260503173053 | 25 | 145 | 4.8 | 0.0 | 0.00 | 0.00 | 0.00 | 37 | 1022.8 |
| 20260503172511 | 25 | 165 | 4.8 | 0.0 | 0.00 | 0.00 | 0.00 | 38 | 1022.9 |
| 20260503172048 | 25 | 215 | 3.2 | 0.0 | 0.00 | 0.00 | 0.00 | 44 | 1022.9 |
| 20260503171538 | 25 | 144 | 3.2 | 0.0 | 0.00 | 0.00 | 0.00 | 42 | 1023.0 |
| 20260503171007 | 25 | 223 | 1.6 | 0.0 | 0.00 | 0.00 | 0.00 | 44 | 1023.1 |
| 20260503170544 | 24 | 248 | 1.6 | 0.0 | 0.00 | 0.00 | 0.00 | 42 | 1023.1 |
| 20260503151008 | 21 | 169 | 3.2 | 0.0 | 0.00 | 0.00 | 0.00 | 55 | 1023.7 |
| 20260503150548 | 21 | 263 | 3.2 | 0.0 | 0.00 | 0.00 | 0.00 | 58 | 1023.8 |
| 20260503131040 | 12 | 71 | 1.6 | 0.0 | 0.00 | 0.00 | 0.00 | 91 | 1023.5 |
| 20260503130508 | 12 | 71 | 0.0 | 0.0 | 0.00 | 0.00 | 0.00 | 92 | 1023.4 |
| 20260503130104 | 11 | 71 | 0.0 | 0.0 | 0.00 | 0.00 | 0.00 | 92 | 1023.4 |
| 20260503110512 | 9 | 71 | 0.0 | 0.0 | 0.00 | 0.00 | 0.00 | 92 | 1022.3 |
| 20260503100109 | 9 | 71 | 0.0 | 0.0 | 0.00 | 0.00 | 0.00 | 92 | 1022.1 |
| 20260503090105 | 10 | 71 | 0.0 | 0.0 | 0.00 | 0.00 | 0.00 | 92 | 1022.0 |
| 20260503081534 | 10 | 71 | 0.0 | 0.0 | 0.00 | 0.00 | 0.00 | 92 | 1022.0 |
| 20260503081003 | 10 | 71 | 0.0 | 0.0 | 0.00 | 0.00 | 0.00 | 92 | 1022.0 |
| 20260503080544 | 10 | 71 | 0.0 | 0.0 | 0.00 | 0.00 | 0.00 | 92 | 1022.0 |
| 20260503072527 | 10 | 71 | 0.0 | 0.0 | 0.00 | 0.00 | 0.00 | 92 | 1022.3 |
| 20260503072103 | 10 | 71 | 0.0 | 0.0 | 0.00 | 0.00 | 0.00 | 92 | 1022.3 |
| 20260503071558 | 10 | 71 | 0.0 | 0.0 | 0.00 | 0.00 | 0.00 | 92 | 1022.4 |
| 20260503071025 | 10 | 71 | 0.0 | 0.0 | 0.00 | 0.00 | 0.00 | 92 | 1022.3 |
| 20260503070604 | 10 | 71 | 0.0 | 0.0 | 0.00 | 0.00 | 0.00 | 92 | 1022.4 |
| 20260503060108 | 11 | 71 | 0.0 | 0.0 | 0.00 | 0.00 | 0.00 | 91 | 1022.5 |